Taloyoak, Nunavut

1:53 PM MDT on April 27, 2017 (GMT -0600)
Taloyoak

Weather History for CYYH - April, 2014

Change the Weather History Date:

Wednesday, April 2, 2014

  Actual Average Record
Temperature  
Mean Temperature -27 °F -  
Max Temperature -22 °F 4 °F 13 °F (2017)
Min Temperature -32 °F -8 °F -34 °F (1997)
Degree Days  
Heating Degree Days 92    
Moisture  
Dew Point -35 °F    
Average Humidity 66    
Maximum Humidity 76    
Minimum Humidity 39    
Precipitation  
Precipitation 0.00 in - - ()
Sea Level Pressure  
Sea Level Pressure 29.92 in    
Wind  
Wind Speed 7 mph ()    
Max Wind Speed 13 mph    
Max Gust Speed -    
Visibility 14.6 miles    
Events Snow    
Averages and records for this station are not official NWS values.
T = Trace of Precipitation, MM = Missing Value Source: Averaged Metar Reports

Daily Weather History Graph

Daily Weather History Graph

Search for Another Location

Airport or City:

Trip Planner

Search our weather history database for the weather conditions in past years. The results will help you decide how hot, cold, wet, or windy it might be!

Date:

Astronomy

Apr. 02, 2014 Rise Set
Actual Time 6:13 AM CDT 8:24 PM CDT
Civil Twilight 5:08 AM CDT 9:30 PM CDT
Nautical Twilight 3:33 AM CDT 11:08 PM CDT
Astronomical Twilight Sun does not set Sun does not set
Moon 6:22 AM CDT (4/2) 12:13 AM CDT (4/2)
Length of Visible Light 16h 21m
Length of Day
14h 10m
Waxing Crescent, 10% of the Moon is Illuminated
Apr 2
Waxing Crescent
Apr 7
First Quarter
Apr 15
Full
Apr 22
Last Quarter
Apr 29
New

Hourly Weather History & Observations

Time (CDT) Temp. Windchill Dew Point Humidity Pressure Visibility Wind Dir Wind Speed Gust Speed Precip Events Conditions
12:00 AM -27.4 °F -47.6 °F -32.8 °F 75% 29.88 in 15.0 mi SSE 8.1 mph - N/A   Mostly Cloudy
1:00 AM -29 °F - -35 °F 56% 29.88 in 12 mi SE 8.1 mph - - Snow Snow
1:00 AM -29.2 °F -49.7 °F -34.6 °F 75% 29.88 in 13.0 mi SE 8.1 mph - N/A   Scattered Clouds
2:00 AM -29.2 °F -51.2 °F -36.4 °F 68% 29.89 in 13.0 mi SSE 9.2 mph - N/A   Partly Cloudy
3:00 AM -31.0 °F -53.4 °F -36.4 °F 75% 29.89 in 13.0 mi SSE 9.2 mph - N/A   Partly Cloudy
4:00 AM -31.0 °F -54.7 °F -38.2 °F 68% 29.90 in 13.0 mi SSE 10.4 mph - N/A   Clear
5:00 AM -32.8 °F -57.0 °F -38.2 °F 75% 29.90 in 15.0 mi SSE 10.4 mph - N/A   Partly Cloudy
6:00 AM -32.8 °F -57.0 °F -38.2 °F 75% 29.90 in 15.0 mi SSE 10.4 mph - N/A   Partly Cloudy
8:00 AM -31.0 °F -56.0 °F -43.6 °F 51% 29.92 in 15.0 mi SSE 11.5 mph - N/A   Partly Cloudy
9:00 AM -31.0 °F -54.7 °F -36.4 °F 75% 29.93 in 15.0 mi SSE 10.4 mph - N/A   Partly Cloudy
10:00 AM -29.2 °F -54.8 °F -36.4 °F 68% 29.93 in 15.0 mi SSE 12.7 mph - N/A   Partly Cloudy
11:00 AM -29.2 °F -52.5 °F -34.6 °F 75% 29.92 in 15.0 mi SSE 10.4 mph - N/A   Partly Cloudy
12:00 PM -27.4 °F -47.6 °F -32.8 °F 75% 29.93 in 15.0 mi South 8.1 mph - N/A   Partly Cloudy
1:00 PM -26 °F - -36 °F 39% 29.93 in 15 mi SSE 6.9 mph - - Snow Snow
1:00 PM -25.6 °F -43.8 °F -36.4 °F 57% 29.93 in 15.0 mi SSE 6.9 mph - N/A   Partly Cloudy
2:00 PM -25.6 °F -41.9 °F -31.0 °F 76% 29.94 in 15.0 mi SSE 5.8 mph - N/A   Partly Cloudy
3:00 PM -23.8 °F -41.6 °F -32.8 °F 63% 29.94 in 15.0 mi SSE 6.9 mph - N/A   Partly Cloudy
4:00 PM -23.8 °F -39.8 °F -32.8 °F 63% 29.94 in 15.0 mi SSE 5.8 mph - N/A   Partly Cloudy
5:00 PM -23.8 °F -41.6 °F -32.8 °F 63% 29.94 in 15.0 mi SSE 6.9 mph - N/A   Partly Cloudy
6:00 PM -23.8 °F -35.0 °F -36.4 °F 52% 29.94 in 15.0 mi SSE 3.5 mph - N/A   Partly Cloudy
7:00 PM -24 °F - -34 °F 43% 29.94 in 15 mi SE 5.8 mph - - Snow Snow
7:00 PM -23.8 °F -39.8 °F -32.8 °F 63% 29.94 in 15.0 mi SE 5.8 mph - N/A   Partly Cloudy
8:00 PM -25.6 °F - -31.0 °F 76% 29.94 in 15.0 mi ESE 2.3 mph - N/A   Partly Cloudy
9:00 PM -25.6 °F - -31.0 °F 76% 29.94 in 15.0 mi East 2.3 mph - N/A   Partly Cloudy
10:00 PM -25.6 °F - -31.0 °F 76% 29.94 in 15.0 mi Calm Calm - N/A   Partly Cloudy
11:00 PM -27.4 °F - -34.6 °F 69% 29.93 in 15.0 mi NNE 2.3 mph - N/A   Partly Cloudy